sat.trackr.live / text

‹ back to catalog

IRIDIUM 102

NORAD 41920 · 2017-003D

PAYLOAD ACTIVE UNKNOWN

§ Identity

Operator
Country
US
Launch date
2017-01-14
Launch site
AFWTR
Launch vehicle
Mass (kg)
RCS (m²)
2.63

Purposes: comms

External: N2YO · Heavens-Above · Gunter

§ Orbital elements

Epoch: 2026-05-24T23:08:14.097984Z

Period
100.40 min
Inclination
86.3949°
Eccentricity
0.0002261
Mean motion
14.34218262 rev/d
Perigee alt
776.0 km
Apogee alt
779.3 km
Semi-major
7,155.8 km
B*
6.9000e-5
RAAN
98.1472°
Arg perigee
85.7894°
Mean anomaly
274.3560°
Rev number
48,995

§ Raw data

IRIDIUM 1021 41920U 17003D   26144.96405206  .00000213  00000+0  69000-4 0  99902 41920  86.3949  98.1472 0002261  85.7894 274.3560 14.34218262489955

JSON: /api/v1/satellites/41920 · /tle

For live sub-satellite position, see the globe view (requires WebGL).

§ Visibility from observer

Set your observer location to see the next 7 days of passes ≥ 10°. The values pass through the URL so the page stays shareable.

No JS? Fill the form by hand. The geolocation button needs JavaScript.